Weather History for Richmond Hanover County, VA

Change the Weather History Date:

Tuesday, June 11, 2013

  Actual Average Record
Temperature  
Mean Temperature 76 °F -  
Max Temperature 84 °F 82 °F 97 °F (1964)
Min Temperature 66 °F 58 °F 42 °F (1972)
Cooling Degree Days 12    
Growing Degree Days 26 (Base 50)    
Moisture  
Dew Point 67 °F    
Average Humidity 78    
Maximum Humidity 97    
Minimum Humidity 51    
Precipitation  
Precipitation 0.01 in - - ()
Sea Level Pressure  
Sea Level Pressure 29.87 in    
Wind  
Wind Speed 7 mph (WSW)    
Max Wind Speed 12 mph    
Max Gust Speed 21 mph    
Visibility 10 miles    
Events      
Averages and records for this station are not official NWS values.
T = Trace of Precipitation, MM = Missing Value Source: NWS Daily Summary

Daily Weather History Graph

Daily Weather History Graph

Search for Another Location

Airport:

Trip Planner

Search our weather history database for the weather conditions in past years. The results will help you decide how hot, cold, wet, or windy it might be!

Date:

Astronomy

Jun. 11, 2013 Rise Set
Actual Time 5:47 AM EDT 8:31 PM EDT
Civil Twilight 5:16 AM EDT 9:02 PM EDT
Nautical Twilight 4:37 AM EDT 9:41 PM EDT
Astronomical Twilight 3:53 AM EDT 10:25 PM EDT
Moon 8:26 AM EDT (6/11) 10:36 PM EDT (6/11)
Length of Visible Light 15h 46m
Length of Day
14h 44m
Waxing Crescent, 8% of the Moon is Illuminated
Jun 11
Waxing Crescent
Jun 16
First Quarter
Jun 23
Full
Jun 30
Last Quarter
Jul 8
New

Hourly Weather History & Observations

Time (EDT) Temp. Heat Index Dew Point Humidity Pressure Visibility Wind Dir Wind Speed Gust Speed Precip Events Conditions
12:54 AM 71.1 °F - 68.0 °F 90% 29.88 in 10.0 mi SW 11.5 mph - N/A   Clear
1:54 AM 70.0 °F - 68.0 °F 93% 29.87 in 10.0 mi SW 5.8 mph - N/A   Partly Cloudy
2:54 AM 70.0 °F - 68.0 °F 93% 29.87 in 10.0 mi SW 8.1 mph - N/A   Partly Cloudy
3:06 AM 69.8 °F - 68.0 °F 94% 29.87 in 10.0 mi SW 6.9 mph - N/A   Mostly Cloudy
3:54 AM 70.0 °F - 68.0 °F 93% 29.86 in 10.0 mi SSW 5.8 mph - N/A   Overcast
4:54 AM 70.0 °F - 68.0 °F 93% 29.86 in 10.0 mi SW 5.8 mph - N/A   Overcast
5:54 AM 70.0 °F - 68.0 °F 93% 29.87 in 10.0 mi SSW 6.9 mph - N/A   Overcast
6:54 AM 70.0 °F - 69.1 °F 97% 29.87 in 7.0 mi SW 4.6 mph - 0.01 in   Overcast
7:21 AM 71.6 °F - 69.8 °F 94% 29.87 in 8.0 mi Calm Calm - N/A   Mostly Cloudy
7:52 AM 71.6 °F - 69.8 °F 94% 29.87 in 8.0 mi SSW 4.6 mph - N/A   Mostly Cloudy
7:54 AM 71.1 °F - 69.1 °F 93% 29.87 in 8.0 mi SSW 3.5 mph - N/A   Mostly Cloudy
8:05 AM 71.6 °F - 69.8 °F 94% 29.88 in 8.0 mi SW 4.6 mph - N/A   Overcast
8:41 AM 73.4 °F - 69.8 °F 88% 29.88 in 10.0 mi West 8.1 mph - N/A   Mostly Cloudy
8:54 AM 73.0 °F - 68.0 °F 84% 29.88 in 10.0 mi SW 5.8 mph - N/A   Mostly Cloudy
9:01 AM 73.4 °F - 69.8 °F 88% 29.88 in 10.0 mi SW 8.1 mph - N/A   Mostly Cloudy
9:12 AM 73.4 °F - 68.0 °F 83% 29.88 in 10.0 mi WSW 6.9 mph - N/A   Mostly Cloudy
9:54 AM 75.0 °F - 68.0 °F 79% 29.87 in 10.0 mi WSW 6.9 mph - N/A   Mostly Cloudy
10:25 AM 75.2 °F - 66.2 °F 73% 29.88 in 10.0 mi WSW 10.4 mph - N/A   Mostly Cloudy
10:54 AM 77.0 °F - 66.0 °F 69% 29.87 in 10.0 mi West 11.5 mph - N/A   Scattered Clouds
11:54 AM 80.1 °F 82.3 °F 66.9 °F 64% 29.86 in 10.0 mi West 11.5 mph - N/A   Partly Cloudy
12:54 PM 81.0 °F 82.7 °F 64.9 °F 58% 29.86 in 10.0 mi WNW 10.4 mph - N/A   Scattered Clouds
1:54 PM 82.0 °F 83.8 °F 64.9 °F 56% 29.85 in 10.0 mi West 5.8 mph 19.6 mph N/A   Partly Cloudy
2:54 PM 82.9 °F 84.6 °F 64.9 °F 54% 29.84 in 10.0 mi West 10.4 mph 20.7 mph N/A   Scattered Clouds
3:54 PM 82.0 °F 83.4 °F 64.0 °F 54% 29.84 in 10.0 mi WSW 11.5 mph - N/A   Scattered Clouds
4:54 PM 82.9 °F 84.6 °F 64.9 °F 54% 29.83 in 10.0 mi WSW 8.1 mph - N/A   Overcast
5:54 PM 84.0 °F 85.4 °F 64.0 °F 51% 29.83 in 10.0 mi WSW 9.2 mph - N/A   Overcast
6:54 PM 82.0 °F 83.8 °F 64.9 °F 56% 29.84 in 10.0 mi WSW 6.9 mph - N/A   Mostly Cloudy
7:54 PM 80.1 °F 81.9 °F 64.9 °F 60% 29.85 in 10.0 mi West 5.8 mph - N/A   Clear
8:54 PM 75.9 °F - 64.0 °F 67% 29.86 in 10.0 mi WSW 3.5 mph - N/A   Clear
9:54 PM 75.0 °F - 63.0 °F 66% 29.88 in 10.0 mi SW 3.5 mph - N/A   Clear
10:54 PM 73.0 °F - 63.0 °F 71% 29.90 in 10.0 mi Calm Calm - N/A   Clear
11:54 PM 66.9 °F - 64.9 °F 93% 29.91 in 8.0 mi Calm Calm - N/A   Clear